Flag for Canada Weather past 2 weeks in Strathcona County, Alberta, Canada

Now
54 °F

Sunny.


Feels Like: 50 °F
Forecast: 34 / 50 °F
Wind: 10 mph from South

Location: Edmonton Municipal

Current Time: Mar 27, 2015 at 1:11:59 PM

Latest Report: Mar 27, 2015 at 12:00 PM


Visibility: 9 mi

Pressure: 29.91 "Hg

Humidity: 58%

Dew point: 39 °F

Location of Strathcona CountyLocation

Historic Weather in Strathcona County — Graph

°F

Strathcona County temperature yesterday

Maximum temperature yesterday: 48 °F (at 4:00 PM)
Minimum temperature yesterday: 34 °F (at 3:00 AM)
Average temperature yesterday: 41 °F

Past Weeks' High & Low Weather Summary

 TemperatureHumidityPressure
High61 °F (Mar 14, 2:00 PM)100% (Mar 22, 10:00 PM)30.51 "Hg (Mar 22, 10:00 PM)
Low10 °F (Mar 23, 1:48 AM)32% (Mar 18, 6:00 PM)29.20 "Hg (Mar 14, 7:00 PM)
Average34 °F68%30.06 "Hg
* Reported Mar 12 12:00 Noon — Mar 27 12:00 Noon, Strathcona County, Weather by CustomWeather, © 2015

Note: Actual official high and low records may vary slightly from our data, if they occured in-between our weather recording intervals... More about our weather records

Advertising

Strathcona County weather history for previous 24 hours

 ConditionsComfort  
Time TempWeatherWind HumidityBarometerVisibility
12:00 PM
Fri, Mar 27
54 °FSunny.10 mph58%29.91 "Hg9 mi
11:00 AM52 °FSunny.5 mph58%29.93 "Hg9 mi
10:00 AM46 °FSunny.No wind71%29.93 "Hg9 mi
9:00 AM41 °FSunny.No wind81%29.94 "Hg9 mi
8:00 AM34 °FClear.No wind93%29.96 "Hg9 mi
7:00 AM32 °FClear.2 mph87%29.97 "Hg9 mi
6:00 AM32 °FClear.2 mph93%29.97 "Hg9 mi
5:00 AM34 °FClear.No wind87%29.96 "Hg9 mi
4:00 AM37 °FPassing clouds.5 mph81%29.96 "Hg9 mi
3:00 AM39 °FPassing clouds.2 mph81%29.96 "Hg9 mi
2:00 AM39 °FPassing clouds.3 mph75%29.96 "Hg9 mi
1:00 AM37 °FPassing clouds.2 mph87%29.96 "Hg9 mi
12:00 AM39 °FPassing clouds.No wind81%29.97 "Hg9 mi
11:00 PM
Thu, Mar 26
43 °FClear.No wind71%29.97 "Hg9 mi
10:00 PM45 °FPassing clouds.3 mph66%29.97 "Hg9 mi
8:00 PM45 °FPassing clouds.3 mph71%29.98 "Hg9 mi
7:00 PM48 °FSunny.6 mph66%29.97 "Hg9 mi
6:00 PM48 °FSunny.7 mph66%29.98 "Hg9 mi
5:00 PM48 °FPassing clouds.8 mph62%29.99 "Hg9 mi
4:00 PM48 °FPassing clouds.9 mph58%30.01 "Hg9 mi
3:00 PM46 °FScattered clouds.7 mph66%30.03 "Hg9 mi
2:00 PM45 °FPassing clouds.2 mph66%30.04 "Hg9 mi
1:00 PM43 °FPartly sunny.3 mph66%30.06 "Hg9 mi
Weather by CustomWeather, © 2015

See weather overviewHow to use our weather pages